LROP Weather Reports


Display with metric or nautical units.
time (UTC)temp
F
wind
direction
speed
MPH
gust
MPH
rain 1hr
in
rain 24hr
in
rain mn
in
humidity
%
barometer
mb
20260505140301 79 240 5.0 0.0 0.00 0.00 0.00 32 1014.0
20260505130302 77 5.0 0.0 0.00 0.00 0.00 34 1014.0
20260505124802 75 180 3.0 0.0 0.00 0.00 0.00 36 1014.0
20260505123302 75 180 3.0 0.0 0.00 0.00 0.00 36 1014.0
20260505121802 75 250 7.0 0.0 0.00 0.00 0.00 39 1014.0
20260505120305 77 3.0 0.0 0.00 0.00 0.00 36 1015.0
20260505114809 77 3.0 0.0 0.00 0.00 0.00 36 1015.0
20260505113332 77 3.0 0.0 0.00 0.00 0.00 36 1015.0
20260505111802 75 250 6.0 0.0 0.00 0.00 0.00 39 1015.0
20260505110302 75 250 6.0 0.0 0.00 0.00 0.00 39 1015.0
20260505101803 73 3.0 0.0 0.00 0.00 0.00 38 1015.0
20260505100302 73 3.0 0.0 0.00 0.00 0.00 38 1015.0
20260505094803 73 5.0 0.0 0.00 0.00 0.00 41 1015.0
20260505093302 73 5.0 0.0 0.00 0.00 0.00 41 1015.0
20260505091802 72 230 3.0 0.0 0.00 0.00 0.00 44 1016.0
20260505090302 72 230 3.0 0.0 0.00 0.00 0.00 44 1016.0
20260505084802 72 3.0 0.0 0.00 0.00 0.00 44 1016.0
20260505083302 72 3.0 0.0 0.00 0.00 0.00 44 1016.0
20260505081802 68 120 3.0 0.0 0.00 0.00 0.00 53 1016.0
20260505080302 68 120 3.0 0.0 0.00 0.00 0.00 53 1016.0
20260505074815 66 2.0 0.0 0.00 0.00 0.00 60 1016.0
20260505073302 66 2.0 0.0 0.00 0.00 0.00 60 1016.0
20260505071802 64 1.0 0.0 0.00 0.00 0.00 60 1016.0
20260505070302 64 1.0 0.0 0.00 0.00 0.00 60 1016.0
20260505064802 63 90 3.0 0.0 0.00 0.00 0.00 64 1016.0
20260505063302 63 90 3.0 0.0 0.00 0.00 0.00 64 1016.0
20260505061802 61 2.0 0.0 0.00 0.00 0.00 68 1016.0
20260505060302 61 2.0 0.0 0.00 0.00 0.00 68 1016.0
20260505054802 61 1.0 0.0 0.00 0.00 0.00 63 1016.0
20260505053302 61 1.0 0.0 0.00 0.00 0.00 63 1016.0
20260505051802 55 20 3.0 0.0 0.00 0.00 0.00 77 1016.0
20260505050302 55 20 3.0 0.0 0.00 0.00 0.00 77 1016.0
20260505040301 50 2.0 0.0 0.00 0.00 0.00 88 1015.0
20260505034802 48 350 3.0 0.0 0.00 0.00 0.00 94 1015.0
20260505033302 48 350 3.0 0.0 0.00 0.00 0.00 94 1015.0
20260505031802 46 1.0 0.0 0.00 0.00 0.00 93 1015.0
20260505030302 46 1.0 0.0 0.00 0.00 0.00 93 1015.0
20260505024802 48 350 3.0 0.0 0.00 0.00 0.00 94 1015.0
20260505023302 48 350 3.0 0.0 0.00 0.00 0.00 94 1015.0
20260505021802 46 2.0 0.0 0.00 0.00 0.00 93 1015.0
20260505020302 46 2.0 0.0 0.00 0.00 0.00 93 1015.0
20260505014801 48 30 2.0 0.0 0.00 0.00 0.00 94 1015.0
20260505013302 48 30 2.0 0.0 0.00 0.00 0.00 94 1015.0
20260505011802 48 70 3.0 0.0 0.00 0.00 0.00 87 1015.0
20260505010302 48 70 3.0 0.0 0.00 0.00 0.00 87 1015.0
20260505004802 50 2.0 0.0 0.00 0.00 0.00 88 1015.0
20260505003302 50 2.0 0.0 0.00 0.00 0.00 88 1015.0
20260505001802 52 30 3.0 0.0 0.00 0.00 0.00 82 1015.0
20260505000302 52 30 3.0 0.0 0.00 0.00 0.00 82 1015.0
20260504234802 52 30 1.0 0.0 0.00 0.00 0.00 82 1015.0
20260504233302 52 30 1.0 0.0 0.00 0.00 0.00 82 1015.0
20260504231802 52 2.0 0.0 0.00 0.00 0.00 82 1015.0
20260504230302 52 2.0 0.0 0.00 0.00 0.00 82 1015.0
20260504224801 54 2.0 0.0 0.00 0.00 0.00 77 1015.0
20260504223302 54 2.0 0.0 0.00 0.00 0.00 77 1015.0
20260504221825 54 40 5.0 0.0 0.00 0.00 0.00 77 1015.0
20260504220302 54 40 5.0 0.0 0.00 0.00 0.00 77 1015.0
20260504214802 54 50 3.0 0.0 0.00 0.00 0.00 77 1015.0
20260504213318 54 50 3.0 0.0 0.00 0.00 0.00 77 1015.0
20260504211801 55 30 3.0 0.0 0.00 0.00 0.00 72 1015.0
20260504210302 55 30 3.0 0.0 0.00 0.00 0.00 72 1015.0
20260504204802 55 0 0.0 0.0 0.00 0.00 0.00 72 1015.0
20260504203303 55 0 0.0 0.0 0.00 0.00 0.00 72 1015.0
20260504201801 55 0 0.0 0.0 0.00 0.00 0.00 72 1015.0
20260504200302 55 0 0.0 0.0 0.00 0.00 0.00 72 1015.0
20260504194802 55 110 3.0 0.0 0.00 0.00 0.00 72 1015.0
20260504193302 55 110 3.0 0.0 0.00 0.00 0.00 72 1015.0
20260504191802 57 150 6.0 0.0 0.00 0.00 0.00 67 1015.0
20260504190302 57 150 6.0 0.0 0.00 0.00 0.00 67 1015.0
20260504184802 59 160 6.0 0.0 0.00 0.00 0.00 68 1015.0
20260504183312 59 160 6.0 0.0 0.00 0.00 0.00 68 1015.0
20260504181802 59 120 3.0 0.0 0.00 0.00 0.00 68 1015.0
20260504180302 59 120 3.0 0.0 0.00 0.00 0.00 68 1015.0
20260504174802 61 110 5.0 0.0 0.00 0.00 0.00 63 1015.0
20260504173302 61 110 5.0 0.0 0.00 0.00 0.00 63 1015.0
20260504171802 64 120 5.0 0.0 0.00 0.00 0.00 56 1015.0
20260504170302 64 120 5.0 0.0 0.00 0.00 0.00 56 1015.0
20260504160303 68 120 6.0 0.0 0.00 0.00 0.00 49 1014.0
20260504150302 70 1.0 0.0 0.00 0.00 0.00 38 1015.0